Showing default

DIADEME 1, 2674

Orbit data source: Space-Track

DIADEME 1, 2674 is a payload satellite owned by CNES (FR) in LEO that was launched on Wed, 08 Feb 1967 UTC via a DIAMANT A launch vehicle from the Hamma Guira Space Track Range (HGSTR). Payload-class satellites include a variety of spacecraft equipped with specific instruments for various scientific and technological missions. These include communications satellites like Starlink; space stations such as the ISS; scientific satellites like the Hubble; Earth observation satellites from companies like Planet Labs, Umbra, and HawkEye 360; GPS; miniature CubeSats for education and research; and military/defense satellites.

Loading next visibility...
Identifier
2674, 1967-011A
Orbit
LEO
Country
Flag of FRFR
Related business
Manufacturer
CNES
Mission
Spacecraft
Bus & Motor
D-1, Unknown motor
Mass
23 kg wet, 23 kg dry
Launch date (UTC)
1967-02-08 (59 years ago)
Launch vehicle
DIAMANT A
Launch site
Hamma Guira Space Track Range (HGSTR)
Object type
Payload
Rocket body
Debris
Shape & HBR
Unknown
Radar Cross Section
Medium (>0.1 m² and <1 m²)

Expand to show TLE details & history
Last TLE update: 12 hours ago

TLE from 12 hours ago
0 DIADEME 1
1 02674U 67011A   26095.01335966  .00007925  00000-0  85917-3 0  9995
2 02674  39.9171 344.7944 0204674 105.6660 256.6806 14.74111755 79301
Epoch: 2026-04-05T00:19Z
TLE epoch observation values (Epoch: 2026-04-05T00:19:14.274Z)
Latitude
0.00003°
Longitude
146.66008°
Altitude
683.31 km
Speed
7.498 km/s
True Right ascension
22h 59m 10s
True Declination
0° 00' 00"
Sunlit
Object was in daylight at epoch
Visualization orbit readout
Latitude
Unknown
Longitude
Unknown
Altitude
Unknown
Speed
Unknown
Apparent Right ascension
Unknown
Apparent Declination
Unknown
Sunlit
N/A
Visualization observer readout
Local Sidereal Time
18:25:50
Azimuth
Unknown
Elevation
Unknown
Doppler factor
Unknown
Orbital elements
Apogee altitude
794.231 km
Perigee altitude
506.52 km
Semi-major axis
7,028.513 km
Eccentricity
0.02047
Inclination
39.9171°
RAAN
344.7944°
Arg. of periapsis
105.666°
True anomaly
254.41227°
Mean anomaly
256.6806°
Eccentric anomaly
255.54503°
Mean motion
3.68339 °/min
Orbital period
97.74 mins
BSTAR
0.00085917
Loading maneuver chart data...
Computing Atmospheric mass density...

Documentation

Showing up to 5 results
|